Find Starlink 2692

NORAD ID: 48434 Int'l Des: 2021-040 Owner: SPXS Country: US Constellation: starlink operational
LEOCIRCULAR

現在のビュー

3D地球を読み込み中...

About Starlink 2692

Starlink 2692 (NORAD 48434) is a starlink constellation satellite (v1.0) launched May 9, 2021 by SPXS of US. It operates in LEO, CIRCULAR orbit with a mass of 260.00 kg.

Starlink 2692について

説明を読み込み中...

次回通過

Passes for default location (London). Set your location on the main map for personalized predictions.

高度履歴

Loading altitude history...

軌道要素

1 48434U 21040G 26170.99731315 .00001526 00000-0 60933-4 0 9993
2 48434 53.1619 36.8207 0001218 87.5790 272.5350 15.31700590282719
Epoch: Jun 19, 2026 • Age: 15 hours

現在のステータス

高度 472.8 km
速度 7.63 km/s
衛星直下点 -6.49°S, 87.26°E
打ち上げ日 May 9, 2021
運用期間 5.1 years
タイプ internet

技術仕様

分類 Payload
質量 260.00 kg
乾燥質量 248.00 kg
総質量 260.00 kg
長さ 0.20 m
直径 2.80 m
スパン 9.00 m
形状 Box + pan
製造者 SPXS
バスタイプ Starlink
フェーズステータス In Orbit
所有者/国 SPXS/US

Most Searched